www.pogodaiklimat.ru

Погода и климат >> Архив погоды >> Иордания >> Аэропорт Принц Хассан


ПОГОДА в Аэропорту Принц Хассан

  • Прогноз погоды в Аэропорту Принц Хассан
  • Монитор погоды в Аэропорту Принц Хассан

АРХИВ ПОГОДЫ в Аэропорту Принц Хассан

Время (UTC), дата Ветер
(напр.,м/с)
 
Видим.   Явления Облачность Т
(С)
Тd
(С)
f
(%)
Тe
(С)
Тes
(С)
Комфортность P
(гПа)
Po
(гПа)
Тmin
(С)
Tmax
(С)
R
(мм)
R24
(мм)
S
(см)
12 12.06 З 5 10 км ясно +35.0 +1.3 12 +32 +39 жарко 1007.8 934.7
18 12.06 СЗ 6 10 км ясно +26.4 +14.4 48 +29 +29 жарко 1008.9 935.1 +35.5
21 12.06 штиль 0 10 км ясно +24.0 +14.2 54 +26 +26 жарко 1009.6 936.1
03 13.06 штиль 0 10 км ясно +19.0 +5.1 40 +19 +20 1009.3 935.3
06 13.06 СЗ 5 10 км ясно +25.2 +8.8 35 +26 +31 жарко 1009.8 935.7 +19.0
09 13.06 ЮЗ 5 10 км ясно +29.4 +8.2 27 +29 +40 жарко 1008.8 935.0
12 13.06 ЮЗ 5 10 км 1/1 1050 м
[Cu hum]
+30.6 +9.2 26 +30 +37 жарко 1007.9 934.0
15 13.06 З 6 10 км 3/3 1050 м
[Cu hum]
+29.6 +10.1 30 +30 +30 жарко 1007.7 933.4
18 13.06 З 6 10 км ясно +25.4 +12.7 45 +27 +27 жарко 1008.2 934.1 +31.2
21 13.06 З 5 10 км ясно +22.0 +12.5 55 +25 +25 комфорт 1009.0 935.0
00 14.06 штиль 0 10 км ясно +19.0 +10.8 59 +20 +20 1007.9 933.7
03 14.06 З 3 10 км ясно +18.0 +11.3 65 +18 +18 1008.3 933.9
06 14.06 штиль 0 10 км ясно +22.8 +8.7 41 +24 +38 комфорт 1008.8 934.4 +17.8
09 14.06 З 3 10 км ясно +27.4 +8.1 30 +27 +45 жарко 1007.7 933.5
12 14.06 ЮЗ 5 10 км 1/1 1050 м
[Cu hum]
+31.2 +5.1 19 +29 +36 жарко 1001.5 932.5
15 14.06 З 6 10 км 1/1 1050 м
[Cu hum]
+30.6 +6.4 22 +29 +30 жарко 1006.0 931.9
18 14.06 З 6 10 км ясно +26.8 +12.1 40 +28 +28 жарко 1006.3 931.9 +32.2
21 14.06 штиль 0 10 км ясно +24.0 +14.2 54 +26 +26 жарко 1006.9 931.8
00 15.06 СЗ 3 10 км ясно +22.8 +12.3 52 +26 +26 жарко 1005.8 930.5
03 15.06 штиль 0 10 км ясно +20.6 +8.0 44 +22 +22 комфорт 1006.1 932.3
06 15.06 Ю 3 10 км ясно +24.8 +4.9 28 +24 +33 комфорт 1006.8 933.0 +20.4
09 15.06 ЮЗ 4 10 км ясно +30.2 +4.4 19 +28 +42 жарко 1006.2 932.7
12 15.06 Ю 5 10 км 1/1 900 м
[Cu hum]
+33.0 +5.6 18 +31 +38 жарко 1004.5 931.3
15 15.06 З 5 10 км ясно +33.2 +5.3 17 +31 +32 жарко 1004.3 930.9
18 15.06 З 6 10 км ясно +29.0 +11.2 33 +30 +30 жарко 1004.8 931.4 +34.6
21 15.06 Ю 4 10 км ясно +24.8 +11.5 43 +26 +26 жарко 1005.8 932.4
00 16.06 штиль 0 10 км ясно +22.8 +10.5 46 +25 +25 комфорт 1005.6 932.3
03 16.06 штиль 0 10 км ясно +21.0 +8.1 43 +22 +22 комфорт 1006.4 932.9
06 16.06 З 3 10 км ясно +27.4 +7.1 28 +27 +35 жарко 1006.8 933.5 +20.8
09 16.06 СЗ 4 10 км ясно +31.0 +5.3 20 +29 +43 жарко 1007.0 933.6
12 16.06 З 4 10 км ясно +31.8 +3.0 16 +29 +39 жарко 1005.9 932.6
15 16.06 З 3 10 км ясно +32.6 +4.0 17 +30 +32 жарко 1005.5 932.0
18 16.06 З 5 10 км ясно +27.8 +7.5 28 +27 +27 жарко 1006.4 933.0 +34.0
21 16.06 СЗ 2 10 км ясно +25.5 +5.8 28 +25 +25 комфорт 1007.1 933.8
00 17.06 СЗ 4 10 км ясно +24.0 +4.7 29 +24 +24 комфорт 1007.5 934.2
03 17.06 штиль 0 10 км ясно +21.4 +10.6 50 +23 +23 комфорт 1008.1 934.4
06 17.06 З 2 10 км ясно +24.8 +10.1 39 +26 +36 жарко 1009.1 935.2 +20.5
09 17.06 З 4 10 км 3/3 900 м
[Cu med, cong]
+28.8 +7.2 26 +28 +38 жарко 1008.7 935.0
12 17.06 З 5 6000 м пыль 4/4 900 м
[Cu med, cong]
+31.8 +7.5 22 +30 +35 жарко 1007.4 934.0
15 17.06 СЗ 5 10 км 4/0
[Ac trans]
+30.5 +8.8 26 +30 +31 жарко 1007.9 934.0
18 17.06 З 5 10 км ясно +26.0 +8.0 32 +26 +26 жарко 1009.8 935.6 +32.8
21 17.06 СЗ 2 10 км ясно +22.6 +10.1 45 +24 +24 комфорт 1010.3 934.6
00 18.06 штиль 0 10 км ясно +21.0 +10.5 51 +23 +23 комфорт 1010.8 934.7
03 18.06 штиль 0 10 км ясно +20.0 +9.0 49 +21 +21 комфорт 1010.4 936.2
06 18.06 штиль 0 10 км ясно +25.4 +9.5 37 +26 +40 жарко 1011.4 937.2 +19.5
09 18.06 З 2 10 км ясно +29.8 +8.1 26 +29 +50 жарко 1011.3 937.2
12 18.06 СЗ 5 10 км 3/3 900 м
[Cu med, cong]
+31.8 +3.6 17 +29 +35 жарко 1009.5 935.6
15 18.06 З 5 10 км 4/4 900 м
[Cu med, cong]
+31.0 +5.9 21 +29 +30 жарко 1009.1 935.0
18 18.06 СЗ 6 10 км ясно +26.0 +11.4 40 +27 +27 жарко 1010.5 936.4 +33.0
21 18.06 СЗ 5 10 км ясно +22.0 +11.6 52 +24 +24 комфорт 1011.1 937.0
00 19.06 СЗ 4 10 км ясно +20.5 +9.5 49 +22 +22 комфорт 1011.4 937.4
03 19.06 штиль 0 10 км ясно +19.0 +10.0 56 +20 +20 1009.9 935.6
06 19.06 СЗ 4 10 км ясно +24.8 +9.2 37 +25 +32 комфорт 1010.2 935.0 +18.5

 

Местоположение метеостанции Аэропорт Принц Хассан (Иордания): широта 32.20 долгота 37.13 высота над уровнем моря 674 м.

В архиве по умолчанию представлена погода в Аэропорту Принц Хассан за последнюю неделю. Архивные данные за месяц целиком и за предыдущие месяцы, начиная с января 2011 года, Вы можете получить, выбрав интересующий диапазон дат из раскрывающегося списка и нажав кнопку "Ввод!".


*Определитесь, кто Вы:
робот инопланетянин человек

Внимание! Время в таблицах - всемирное. Для получения местного времени необходимо прибавить поправку, которая равна 2 ч.

Смотрите также архив погоды в соседних городах и на ближайших метеорологических станциях:

Погода в Эль-Мафраке (Иордания) (85 км)
Погода в Гураяте (Саудовская Аравия) (90 км)
Погода в Руваишеде (Иордания) (106 км)
Погода в Даръа (Сирия) (106 км)
Погода в Аммане (Иордания) (111 км)
Погода в Аэропорту Королева Алия (Иордания) (121 км)
Погода в Ирбиде (Иордания) (126 км)
Погода в Дамаске (Сирия) (147 км)
Погода в Тураифе (Саудовская Аравия) (162 км)
Погода в Цфате (Израиль) (175 км)

Пояснения к столбцам:

Ветер - указаны скорость ветра в м/с - средняя за 10 мин, порывы в срок и между сроками (в фигурных скобках) и направление, откуда дует ветер: С - северный, СВ - северо-восточный, В - восточный, ЮВ - юго-восточный, Ю - южный, ЮЗ - юго-западный, З - западный, СЗ - северо-западный.
Видимость - горизонтальная дальность видимости в метрах или километрах. При видимости от 1 до 10 км при отсутствии осадков обычно наблюдается дымка, при ухудшении видимости до 1 км и менее - туман. В сухую погоду видимость может ухудшаться дымом, пылью или мглою.
Явления - указаны атмосферные явления, наблюдавшиеся в срок или в последний час перед сроком; фигурными скобками обозначены явления, наблюдавшиеся между сроками (за 1-3 часа до срока); квадратными скобками обозначены град или гололедные отложения с указанием их диаметра в мм.
Облачность - указаны через наклонную черту общая и нижняя облачность в баллах и высота нижней границы облаков в метрах; квадратными скобками обозначены формы облаков: Ci - перистые, Cs - перисто-слоистые, Cc - перисто-кучевые, Ac - высококучевые, As - высокослоистые, Sc - слоисто-кучевые, Ns - слоисто-дождевые, Cu - кучевые, Cb - кучево-дождевые. Подробнее классификацию облаков см. в Атласе облаков (PDF).
T - Температура воздуха - температура, измеренная на высоте 2 м над землей.
Td - Температура точки росы - температура, при понижении до которой содержащийся в воздухе водяной пар достигнет насыщения.
f - Относительная влажность воздуха - влажноcть воздуха, измеренная на высоте 2 м над землей.
Te - Эффективная температура - температура, которую ощущает одетый по сезону человек в тени. Характеристика душности погоды. При расчете учитывается влияние влажности воздуха и скорости ветра на теплоощущения человека.
Tes - Эффективная температура на солнце - температура, которую ощущает человек, с поправкой на солнечный нагрев. Характеристика знойности погоды. Зависит от высоты солнца над горизонтом, облачности и скорости ветра. Ночью, в пасмурную погоду, а также при ветре 12 м/с и более поправка равна нулю.
P - Атмосферное давление - приведенное к уровню моря атмосферное давление.
Po - Атмосферное давление - измеренное на уровне метеостанции атмосферное давление.
Tmin - Минимальная температура - минимум температуры воздуха на высоте 2 м над землей.
Tmax - Максимальная температура - максимум температуры воздуха на высоте 2 м над землей.
R - Количество осадков - Количество выпавших осадков за период времени, мм. При наведении курсора мыши на число - период времени, за который выпало указанное количество осадков.
R24 - Количество осадков - Количество выпавших осадков за 24 часа, мм.
S - Снежный покров - Высота снежного покрова, см. При наведении курсора мыши на число - состояние снежного покрова и степень покрытия местности в баллах.